Location: Chochol
(49.7771°N, 14.9780°E)
Time: 04:09:26
(UTC+00:00)

Cosmos 2082 Rocket - Pass Details

Date: 09 April 2020
Orbit: 832 x 855 km, 71.0° (Epoch: 06 June)

Event Time Altitude Azimuth Distance (km) Brightness Sun altitude
Exits shadow 20:33:04 30° 74° (ENE) 1,481 3.2 -23.8°
Drops below altitude 10° 20:36:33 10° 43° (NE) 2,469 4.7 -24.2°
Sets 20:39:10 0° 35° (NE) 3,413 5.6 -24.5°
